Temperature
29 30 30 30 30 29 29 30 30 30 30 29 29 28 27 26 25 24 23 23 22 22 21 21 20 20 20 20 19 19 18 18 18 18 18 17 17 17 17 17 17 16 16 16
28 29 29 29 29 29 29 29 30 30 29 29 27 26 26 25 24 24 23 22 22 21 20 20 19 19 19 19 19 18 18 18 18 17 17 17 17 17 17 17 16 16 16 16
27 28 28 27 28 28 28 29 29 29 29 28 27 26 25 25 24 23 23 22 21 20 20 19 19 19 19 19 18 18 18 18 18 17 17 17 17 17 17 16 16 16 16 16
27 26 26 28 28 28 28 28 28 28 28 27 26 24 24 23 23 23 22 22 21 20 19 19 19 19 19 18 18 18 18 18 17 17 17 17 17 17 17 16 16 16 16 16
27 26 26 27 27 27 27 27 27 27 26 25 24 24 24 23 22 22 21 20 20 20 19 19 19 18 18 18 18 18 17 17 17 17 17 17 17 17 16 16 16 16 16 16
26 26 26 27 27 26 26 26 26 25 24 24 24 26 25 22 21 21 20 20 19 19 19 19 18 18 18 18 18 18 17 17 17 17 17 16 16 16 16 16 16 16 16 15
25 25 26 26 25 25 25 25 24 23 23 23 23 24 22 20 20 20 19 19 19 19 19 18 18 18 18 17 17 17 17 17 17 17 16 16 16 16 16 16 16 16 15 15
25 25 25 24 24 24 23 22 22 22 22 21 21 20 20 19 19 19 19 18 18 18 18 18 17 17 17 17 17 17 17 17 17 17 16 16 16 16 16 16 15 15 15 15
23 23 22 21 22 21 21 21 21 21 21 20 19 19 19 19 19 18 18 18 18 18 17 17 17 17 17 17 17 17 17 17 17 16 16 16 16 16 15 15 15 15 15 15
22 22 21 20 20 20 20 20 20 20 19 19 19 19 19 18 18 17 17 17 17 17 17 17 17 17 17 17 17 17 17 16 16 16 16 16 15 15 15 15 15 15 15 15
21 21 20 20 19 19 19 19 19 19 19 19 18 18 18 17 17 17 17 17 17 17 16 16 16 16 16 16 16 16 16 16 16 16 16 15 15 15 15 15 15 15 15 15
21 20 20 19 18 18 18 18 18 18 18 18 18 17 17 17 16 16 16 16 16 16 16 16 16 16 16 16 16 16 15 15 15 15 15 15 15 15 15 15 15 15 15 14
19 18 18 18 18 17 17 17 17 17 17 17 17 16 16 16 16 16 16 16 16 16 16 16 16 16 15 15 15 15 15 15 15 15 15 15 15 15 15 15 15 15 14 14
17 17 17 17 17 17 16 16 16 16 16 16 16 16 16 16 15 15 15 16 16 16 15 15 15 15 15 15 15 15 15 15 15 14 15 15 15 14 14 14 14 14 14 14
16 16 16 16 16 16 16 16 16 16 16 15 15 15 15 15 15 14 15 15 15 15 15 15 15 15 15 15 14 14 14 14 14 14 14 14 14 14 14 14 14 14 14 14
16 16 16 16 15 15 15 16 16 16 15 15 15 14 14 14 14 14 14 14 14 14 14 14 14 14 14 14 14 14 14 14 13 13 14 14 14 14 14 14 14 14 13 13
16 15 16 15 15 15 15 15 15 15 15 14 14 14 14 14 14 14 14 14 14 14 14 14 13 14 14 13 13 13 13 13 13 13 13 14 14 13 13 13 14 13 13 13
15 15 15 15 15 15 14 14 14 14 14 13 13 13 13 13 13 13 13 13 13 13 13 13 13 13 13 13 13 13 13 13 13 13 13 13 13 13 13 13 13 13 13 13
14 14 14 14 14 14 14 13 13 13 13 13 13 13 13 13 13 13 13 13 13 13 13 13 13 13 13 13 13 13 13 13 13 13 13 13 13 13 13 13 13 12 12 12
14 14 14 14 13 14 13 13 13 13 13 13 12 12 12 12 12 12 12 12 12 12 12 12 12 12 12 12 12 12 12 12 12 13 12 12 12 12 12 12 12 12 12 12
13 13 13 13 13 13 13 13 13 12 12 12 12 12 12 12 12 12 12 12 12 12 12 12 12 12 12 12 12 12 12 12 12 12 12 12 12 12 12 12 12 12 11 11
13 13 13 13 12 12 12 12 12 12 12 12 12 12 12 12 12 12 12 12 12 12 12 12 12 12 12 12 12 12 12 12 12 12 12 12 12 12 11 11 11 11 11 10
12 12 12 12 12 12 12 12 12 12 12 11 11 11 12 11 12 12 12 11 11 11 11 11 11 11 11 11 11 11 12 11 11 12 12 11 11 11 11 11 10 10 10 10
12 12 12 12 12 12 11 11 11 11 11 11 11 11 11 11 11 11 11 11 11 11 11 11 11 11 11 11 11 11 11 11 11 11 11 11 11 11 10 10 10 10 10 10
11 11 11 11 12 12 11 11 11 11 11 11 11 11 11 11 11 11 11 10 10 10 10 10 10 11 11 11 11 11 11 10 10 10 10 10 10 10 10 10 10 9 9 9
11 11 11 11 11 11 11 11 11 11 11 11 11 11 11 11 10 10 10 10 10 10 10 10 10 10 10 10 10 10 10 10 10 10 10 9 9 9 9 9 9 9 9 8
11 11 11 11 11 11 11 11 12 11 11 11 11 11 11 10 10 10 10 10 10 10 10 10 10 10 10 10 9 9 9 9 9 9 9 9 9 9 8 8 8 8 8 8
Wind_Speed
10 8 9 11 12 14 15 14 14 11 10 8 7 6 5 5 6 7 8 8 8 9 9 9 9 8 8 8 8 8 8 8 7 6 6 5 5 5 5 5 4 4 4 4
10 9 9 11 12 12 13 12 12 11 10 5 5 5 5 6 6 7 8 8 8 8 8 8 9 9 9 8 8 8 8 7 7 6 6 5 5 5 5 5 4 4 4 4
11 10 10 13 12 12 11 10 11 11 9 6 6 5 5 6 7 7 7 7 8 8 8 8 8 9 9 9 9 8 7 7 7 6 6 6 6 5 5 5 5 4 4 4
9 10 15 7 4 7 9 9 9 7 5 5 4 4 4 4 5 6 6 6 7 7 7 8 8 9 9 9 9 8 8 7 7 7 7 6 6 6 5 5 5 5 4 4
10 13 12 8 5 6 8 8 5 5 3 3 3 4 4 3 3 4 5 5 5 6 7 7 8 8 9 9 8 8 7 7 6 7 7 6 6 6 5 5 5 5 5 5
11 13 12 6 4 3 6 9 4 3 4 4 5 7 4 1 2 3 4 4 5 5 6 7 7 8 8 8 7 7 6 6 5 6 6 6 5 5 5 5 5 5 5 5
13 13 8 1 3 5 8 4 1 2 3 5 5 3 1 1 2 4 5 5 6 6 6 7 7 8 8 7 6 6 5 5 5 5 5 5 4 4 4 5 5 5 5 5
11 13 9 2 4 4 1 2 1 2 2 2 1 0 2 2 3 4 5 6 6 6 6 6 7 7 7 6 5 5 5 5 4 4 4 4 4 4 4 5 6 6 5 5
5 4 2 0 1 1 2 2 2 2 1 2 2 2 3 4 4 5 5 5 5 6 6 5 5 6 6 5 5 5 5 4 4 4 4 4 4 4 5 5 5 5 5 5
4 2 1 1 0 1 1 1 1 1 2 2 2 3 4 4 4 4 4 4 4 5 5 5 5 5 4 4 4 4 4 4 4 4 5 4 4 4 5 5 5 5 5 5
5 3 3 1 1 1 1 1 1 1 2 2 2 4 4 4 4 4 3 3 4 4 5 4 4 4 4 4 5 4 4 4 4 4 4 4 4 4 5 4 3 5 5 5
5 4 3 2 1 0 1 1 2 2 2 1 2 4 4 5 4 4 3 3 3 3 4 3 3 3 3 4 4 4 4 4 4 4 4 4 4 4 3 4 2 4 5 6
4 4 3 2 1 1 1 1 1 2 2 1 3 4 5 5 4 4 3 3 3 2 3 3 3 3 3 3 4 4 4 4 4 4 4 5 5 5 5 5 7 8 9 9
3 3 3 3 2 1 1 1 2 2 2 3 4 5 5 5 4 3 2 2 2 2 2 2 2 2 3 3 3 3 4 4 4 5 5 5 5 6 6 6 6 5 7 10
4 4 4 3 3 2 2 2 2 3 3 4 4 5 5 4 4 2 2 1 1 1 1 1 1 1 2 3 4 4 4 4 4 4 5 5 5 6 6 7 7 6 5 4
4 3 4 4 3 3 2 3 3 3 3 4 4 4 3 3 3 2 1 1 0 0 1 1 1 1 1 3 4 4 4 5 5 5 5 6 6 6 7 7 7 6 6 5
5 4 4 4 4 4 3 3 2 2 2 3 3 3 3 3 2 2 1 1 1 1 2 2 2 1 1 3 4 4 4 4 6 7 6 6 6 6 6 6 6 6 6 4
4 4 4 4 4 4 4 3 3 3 2 2 3 3 2 2 1 1 1 1 1 1 2 2 2 2 2 3 4 4 4 4 5 5 5 5 5 5 5 6 7 7 5 4
5 4 4 3 3 4 4 4 4 4 3 3 3 2 2 2 2 2 1 1 1 2 3 3 2 3 3 3 3 4 4 4 4 5 5 4 5 5 5 5 5 5 5 4
5 5 4 4 3 3 3 4 4 4 3 3 2 2 2 2 2 2 1 1 2 3 3 3 3 2 2 2 4 4 4 4 5 4 4 4 4 4 4 4 4 5 5 4
5 6 6 5 4 4 4 4 4 4 3 3 2 2 2 2 2 2 1 2 3 4 3 2 1 2 2 3 4 3 3 3 4 4 4 4 4 4 4 4 4 4 4 4
4 5 6 5 5 4 4 4 4 4 3 3 3 2 2 2 2 2 2 2 3 3 3 2 3 5 5 5 3 3 3 3 3 3 3 3 4 4 4 4 4 4 4 4
4 5 5 6 6 5 5 4 4 4 4 3 3 2 2 2 1 1 2 2 3 4 3 4 5 6 7 4 3 3 3 3 3 4 4 4 4 4 4 4 4 4 4 4
4 5 5 6 6 6 5 5 5 4 4 3 3 3 2 2 2 2 3 4 4 4 3 4 4 5 5 3 3 4 4 4 4 4 5 4 4 4 4 4 5 5 4 5
4 5 6 6 6 5 6 6 6 5 4 3 3 2 1 1 2 2 3 4 4 3 3 3 2 3 3 3 3 4 4 4 5 5 5 5 5 5 5 5 5 5 4 5
5 5 4 5 5 5 5 5 5 4 4 3 3 2 2 2 2 2 2 3 3 3 3 3 4 3 3 4 4 4 4 4 4 4 5 5 5 5 5 5 6 5 5 5
5 5 5 5 5 4 4 4 4 4 3 3 3 2 2 2 2 2 2 3 3 3 4 4 4 4 5 5 5 5 5 5 5 5 5 5 5 5 5 6 5 5 5 6
Wind_Direction
247 246 231 228 224 222 233 248 251 246 244 228 219 219 199 185 175 174 172 172 173 172 170 169 167 166 164 166 169 172 176 180 179 180 181 182 184 187 189 193 196 196 201 201
230 230 230 233 230 226 234 243 243 247 249 236 209 208 205 194 189 190 186 181 176 172 169 169 169 168 166 167 167 169 175 177 175 179 182 186 188 189 189 190 196 197 201 205
229 222 228 232 228 225 229 238 241 240 240 209 208 207 211 203 195 198 196 187 180 177 174 173 173 172 170 169 165 164 170 174 174 180 186 192 194 189 190 195 197 200 206 208
228 218 233 235 222 230 232 237 243 251 233 214 216 218 227 218 203 201 198 189 183 178 175 174 172 170 167 165 165 165 168 172 177 187 191 193 195 194 194 200 204 205 206 205
227 227 234 230 216 222 232 236 236 238 222 202 201 215 210 200 194 199 195 187 185 181 173 168 166 162 161 164 166 169 173 178 182 189 191 194 196 196 195 198 202 206 206 209
230 236 237 228 187 217 235 232 210 204 202 198 206 226 202 152 181 170 168 167 167 165 158 156 158 158 159 160 163 169 172 179 185 191 192 195 196 197 198 201 209 214 211 217
231 237 237 208 153 189 225 230 132 201 206 209 229 279 189 169 171 165 158 156 154 151 151 151 155 157 158 162 171 171 165 165 175 186 191 194 195 199 204 210 213 223 223 225
233 236 231 137 179 217 302 1 278 233 208 209 215 166 180 177 165 156 151 149 148 146 144 146 155 160 163 167 169 164 160 164 168 177 193 188 196 207 213 216 214 217 224 235
246 246 27 251 252 331 288 289 281 247 228 194 190 196 185 165 152 149 148 147 149 147 147 151 163 169 168 161 165 165 167 172 174 182 199 199 202 209 215 219 230 230 231 239
237 226 227 224 232 300 291 295 291 237 184 180 190 183 159 152 147 146 150 153 155 153 154 157 161 163 162 161 166 171 179 184 186 194 201 202 219 222 227 229 236 240 243 250
232 228 210 197 344 27 51 54 87 102 115 126 154 145 142 144 143 149 152 154 157 156 156 159 158 157 165 167 170 179 186 193 205 211 208 208 217 232 238 241 252 255 260 261
241 227 247 251 279 3 91 93 105 90 72 71 117 127 131 130 130 133 136 141 147 156 161 163 166 169 173 175 179 188 197 206 218 221 220 227 225 229 225 241 213 231 257 268
253 249 252 248 238 223 143 105 81 75 75 91 100 111 117 118 123 126 126 131 135 145 151 162 168 178 180 188 196 205 218 225 235 236 230 233 236 241 246 234 221 228 231 235
227 216 211 209 209 212 147 99 79 87 87 98 102 109 112 113 109 104 100 100 122 141 149 156 166 181 182 188 201 211 225 227 235 240 241 242 245 250 253 255 254 252 232 221
217 213 212 195 187 187 167 140 122 113 99 96 102 104 107 110 106 99 91 93 114 160 161 158 183 205 204 198 205 221 235 239 239 245 246 248 251 254 258 260 262 262 262 231
211 209 199 181 180 175 166 145 128 114 102 96 96 98 105 110 112 107 98 92 158 303 323 319 284 238 214 231 234 234 234 228 236 248 250 250 253 257 259 259 259 260 259 261
198 193 179 171 166 162 159 152 139 120 103 96 93 98 103 107 103 85 65 43 5 345 331 334 326 302 247 241 249 254 252 234 222 245 254 257 261 262 263 263 263 264 263 262
195 189 186 176 166 154 145 142 136 126 118 102 103 102 89 76 56 37 37 31 11 354 354 349 350 311 276 261 262 269 262 258 253 255 256 256 261 264 264 266 267 268 272 252
174 174 169 161 161 160 150 140 129 124 122 121 117 105 90 75 49 34 40 34 357 341 347 350 321 278 275 272 272 254 264 262 258 258 259 251 251 258 265 271 274 276 276 272
168 168 159 149 152 151 143 132 127 128 126 122 116 103 83 60 34 17 13 359 354 348 344 335 310 314 298 277 270 263 263 265 265 263 265 267 267 271 275 279 280 279 279 277
165 161 157 152 150 147 140 136 131 130 130 128 122 108 85 51 27 8 340 0 15 356 339 299 324 348 334 325 267 277 274 269 273 275 276 279 282 284 284 283 283 284 282 275
157 155 155 155 151 142 138 134 132 132 133 128 119 104 86 56 37 40 29 10 20 357 346 2 13 17 352 321 300 300 296 298 296 296 301 303 300 296 290 291 292 292 287 283
158 153 154 157 151 143 139 138 134 129 128 125 116 109 92 53 27 27 38 29 23 6 2 19 17 7 336 319 334 333 329 323 319 321 322 316 309 307 303 300 298 296 293 293
147 147 147 145 144 142 140 137 130 124 122 116 106 95 92 93 70 46 41 57 32 10 17 38 20 349 317 335 341 338 335 335 334 331 323 317 313 311 307 302 298 298 297 293
143 142 142 148 149 142 139 140 137 139 140 127 116 111 104 80 62 48 40 45 50 23 22 45 38 342 336 348 349 347 348 353 347 337 330 327 325 322 318 317 316 312 311 305
139 140 138 136 130 138 143 147 148 145 144 140 130 118 102 95 86 71 53 50 50 43 19 14 18 360 4 2 357 351 347 350 348 342 341 338 337 335 333 331 325 319 315 311
135 133 131 131 133 140 144 149 150 148 147 144 135 115 100 89 76 62 53 46 44 38 28 19 13 12 12 10 8 7 7 4 359 355 352 349 346 341 336 335 334 328 323 315
Height
1458 1456 1457 1461 1463 1465 1466 1464 1466 1465 1466 1466 1469 1472 1476 1479 1482 1484 1486 1488 1490 1493 1495 1498 1500 1502 1504 1506 1509 1511 1513 1515 1516 1518 1520 1521 1522 1523 1524 1524 1526 1526 1526 1527
1465 1460 1459 1462 1461 1462 1463 1462 1463 1463 1465 1464 1469 1473 1475 1478 1480 1482 1484 1487 1489 1491 1493 1495 1497 1499 1501 1504 1506 1508 1511 1513 1514 1516 1518 1519 1520 1521 1522 1522 1523 1523 1524 1524
1466 1460 1462 1467 1460 1460 1461 1460 1460 1463 1463 1465 1468 1472 1474 1476 1478 1480 1483 1485 1487 1489 1491 1493 1495 1497 1499 1501 1503 1506 1508 1510 1512 1513 1515 1516 1518 1519 1520 1520 1520 1521 1521 1522
1463 1468 1478 1459 1454 1456 1459 1459 1459 1460 1462 1465 1469 1473 1475 1477 1478 1480 1481 1484 1486 1487 1489 1491 1493 1495 1497 1499 1501 1503 1506 1508 1509 1511 1512 1514 1515 1515 1517 1517 1518 1518 1519 1519
1462 1466 1464 1459 1457 1458 1460 1461 1461 1462 1465 1468 1471 1472 1473 1475 1477 1479 1480 1482 1484 1485 1487 1489 1491 1493 1494 1497 1499 1501 1504 1506 1507 1509 1510 1511 1512 1513 1514 1514 1515 1515 1516 1516
1462 1466 1468 1457 1455 1459 1461 1464 1462 1464 1467 1469 1470 1468 1469 1474 1476 1477 1479 1480 1482 1484 1486 1487 1489 1491 1493 1495 1497 1499 1501 1503 1505 1506 1507 1508 1509 1510 1511 1511 1512 1512 1513 1512
1460 1462 1457 1455 1458 1461 1468 1464 1464 1466 1468 1469 1469 1469 1472 1473 1475 1476 1477 1479 1480 1482 1484 1486 1488 1490 1492 1494 1496 1498 1499 1501 1503 1504 1505 1506 1507 1507 1508 1508 1509 1509 1509 1509
1459 1462 1462 1459 1460 1461 1463 1465 1465 1466 1468 1469 1470 1471 1471 1472 1473 1475 1476 1478 1479 1481 1483 1485 1487 1489 1490 1492 1495 1496 1497 1498 1500 1501 1503 1504 1504 1505 1505 1506 1506 1506 1506 1506
1458 1460 1461 1462 1462 1465 1465 1465 1466 1466 1467 1468 1469 1470 1470 1471 1473 1474 1476 1478 1479 1481 1482 1484 1486 1488 1489 1491 1493 1494 1496 1496 1497 1498 1500 1501 1502 1502 1503 1503 1504 1504 1504 1504
1461 1460 1462 1464 1464 1465 1465 1465 1466 1466 1467 1468 1468 1468 1469 1471 1472 1474 1476 1477 1479 1480 1481 1483 1485 1487 1488 1490 1491 1492 1493 1494 1495 1496 1497 1498 1499 1500 1500 1501 1501 1501 1500 1500
1461 1462 1463 1464 1465 1465 1465 1465 1466 1466 1467 1467 1467 1468 1469 1470 1472 1474 1475 1477 1478 1479 1480 1482 1483 1484 1486 1488 1489 1490 1491 1492 1493 1494 1494 1495 1495 1496 1497 1497 1497 1497 1497 1497
1459 1462 1463 1465 1465 1465 1465 1465 1466 1466 1466 1467 1467 1467 1469 1470 1472 1473 1475 1476 1477 1479 1480 1481 1482 1483 1484 1485 1486 1487 1488 1489 1490 1491 1492 1492 1492 1492 1492 1492 1492 1492 1492 1492
1462 1462 1464 1465 1465 1466 1466 1466 1466 1466 1467 1467 1467 1468 1469 1470 1472 1473 1475 1476 1477 1478 1479 1479 1480 1481 1482 1483 1484 1485 1486 1487 1488 1488 1488 1488 1488 1488 1488 1488 1488 1487 1487 1487
1462 1463 1463 1464 1465 1465 1465 1466 1466 1466 1466 1467 1467 1468 1469 1471 1472 1473 1474 1475 1476 1477 1478 1478 1479 1479 1480 1481 1481 1481 1482 1484 1484 1484 1485 1485 1485 1485 1485 1485 1484 1483 1482 1482
1461 1462 1462 1463 1464 1464 1464 1465 1466 1466 1466 1466 1467 1468 1469 1470 1472 1473 1473 1474 1475 1476 1477 1477 1477 1477 1478 1478 1478 1479 1480 1480 1481 1481 1481 1481 1481 1481 1481 1481 1480 1479 1478 1477
1459 1460 1461 1462 1462 1463 1464 1465 1465 1466 1467 1467 1468 1469 1470 1471 1472 1472 1473 1474 1475 1475 1475 1475 1475 1475 1475 1476 1476 1476 1476 1477 1477 1478 1478 1477 1477 1477 1477 1476 1476 1475 1474 1473
1457 1458 1459 1460 1461 1462 1463 1465 1465 1466 1467 1468 1469 1470 1470 1471 1471 1472 1473 1473 1473 1474 1473 1473 1472 1472 1472 1472 1473 1474 1474 1474 1473 1474 1474 1474 1473 1473 1472 1472 1471 1470 1470 1469
1455 1457 1458 1459 1460 1461 1463 1464 1465 1466 1467 1468 1469 1470 1470 1471 1471 1471 1471 1471 1472 1472 1472 1471 1470 1470 1470 1470 1470 1471 1471 1470 1470 1470 1470 1469 1469 1469 1468 1467 1467 1466 1466 1465
1454 1456 1457 1458 1460 1461 1462 1463 1465 1466 1467 1468 1469 1470 1470 1470 1471 1470 1471 1471 1471 1470 1470 1469 1468 1468 1467 1467 1467 1467 1467 1467 1467 1466 1466 1465 1465 1465 1464 1463 1463 1462 1462 1461
1453 1455 1456 1457 1459 1460 1461 1462 1464 1465 1467 1468 1469 1469 1470 1470 1470 1470 1470 1470 1470 1469 1468 1467 1466 1466 1465 1464 1464 1464 1464 1464 1464 1463 1463 1462 1462 1461 1460 1459 1459 1458 1457 1456
1452 1453 1455 1456 1458 1460 1461 1462 1463 1465 1466 1467 1468 1469 1469 1470 1470 1469 1469 1469 1468 1467 1466 1465 1465 1464 1463 1462 1462 1462 1462 1462 1461 1460 1460 1459 1458 1458 1457 1456 1455 1454 1453 1452
1451 1452 1454 1455 1457 1459 1460 1462 1463 1465 1466 1467 1468 1468 1469 1469 1469 1468 1468 1468 1467 1465 1465 1464 1464 1462 1461 1460 1461 1461 1460 1460 1459 1458 1457 1456 1455 1455 1454 1453 1452 1451 1450 1449
1449 1451 1453 1455 1456 1458 1460 1462 1463 1465 1466 1467 1467 1468 1468 1468 1468 1468 1468 1467 1465 1464 1464 1463 1462 1461 1460 1460 1460 1459 1458 1458 1457 1456 1455 1454 1453 1452 1451 1450 1448 1447 1446 1445
1448 1450 1452 1454 1455 1457 1459 1461 1463 1464 1466 1467 1467 1468 1468 1468 1468 1468 1467 1466 1465 1464 1463 1462 1461 1460 1459 1459 1459 1458 1457 1456 1455 1454 1453 1452 1451 1449 1448 1447 1445 1444 1443 1442
1447 1449 1451 1452 1454 1457 1459 1461 1463 1464 1466 1467 1468 1468 1468 1468 1468 1468 1467 1466 1465 1464 1464 1462 1461 1460 1459 1458 1458 1457 1456 1454 1453 1452 1451 1450 1448 1447 1445 1444 1443 1441 1440 1438
1447 1449 1451 1453 1454 1457 1459 1461 1463 1464 1466 1467 1467 1468 1468 1468 1468 1467 1467 1466 1465 1464 1463 1462 1461 1460 1459 1458 1457 1456 1454 1453 1452 1450 1449 1447 1446 1444 1443 1441 1440 1438 1436 1434
1448 1449 1451 1453 1455 1457 1459 1461 1463 1464 1465 1466 1467 1468 1468 1468 1468 1467 1467 1466 1465 1465 1464 1463 1462 1461 1460 1458 1457 1455 1454 1452 1451 1449 1448 1446 1444 1442 1441 1439 1437 1434 1432 1431